UAAH

Details ICAO UAAH
Name BALKHASH
Region Kazakhstan and Kyrgyzstan
Timezone Asia/Almaty (UTC+6.0)
Plans Departing 10
Arriving 11
Stats Elevation 1,446 ft / 441 m (AMSL)
Location 46.894188° 75.004754°
Runways 1
Magnetic Variation 7.026° E
Sunrise 2018-05-23 23:17:11 UTC / 2018-05-24 05:17:11 Local
Sunset 2018-05-24 14:39:17 UTC / 2018-05-24 20:39:17 Local
Advertisement - Login to hide

Runways

ID Width Length Bearing (true) Bearing (mag) Surface Threshold Offset Overrun Length
05 131 ft / 40 m 8,218 ft / 2,505 m 52.40° 45.37° Concrete 0 ft / 0 m 0 ft / 0 m
23 131 ft / 40 m 8,218 ft / 2,505 m 232.42° 225.39° Concrete 0 ft / 0 m 0 ft / 0 m

Map

Weather


0- 5 10 15 20 25 30 35+ Temperature / ° C

Clouds and Precipitation
Forecast for 2018-05-24 12:00 UTC. Updated an hour ago

Ground ~20,000 ft ~40,000 ft Winds

METAR

UAAH 241200Z 21005MPS CAVOK 14/01 Q1026 R23/0///60 NOSIG RMK QFE730/0974

TAF

Not found

Frequencies

Tower 128.00 MHz TWR
Warning: Do not use this data for real-world aviation or navigation. No guarantee of current accuracy is given.